Regional Weather Roundup
Issued by NWS Newport/Morehead, NC

Current Version | Previous Version | Graphics & Text | Print | Product List | Glossary Off
Versions: 1 2 3 4 5 6 7 8 9 10 11 12 13 14 15 16 17 18 19 20 21 22 23 24 25 26 27 28 29 30 31 32 33 34 35 36 37 38 39 40 41 42 43 44 45 46 47 48 49 50

000
ASUS42 KMHX 210210
RWRMHX
WEATHER ROUNDUP FOR EASTERN NORTH CAROLINA
NATIONAL WEATHER SERVICE NEWPORT/MOREHEAD CITY NC
900 PM EST THU NOV 20 2014

NOTE: "FAIR" INDICATES FEW OR NO CLOUDS BELOW 12,000 FEET
WITH NO SIGNIFICANT WEATHER AND/OR OBSTRUCTIONS TO VISIBILITY

NCZ015>017-031-032-045>047-102-103-210300-
NORTH COAST

CITY           SKY/WX    TMP DP  RH WIND       PRES   REMARKS
EDENTON        CLEAR     49  34  56 SW7       30.09R
ELIZABETH CITY CLEAR     47  32  56 SW9       30.07R
KITTY HAWK     CLEAR     47  37  68 SW7       30.07S
MANTEO         CLEAR     46  38  74 SW9       30.09R

$$

NCZ045>047-081-094-103-104-210300-
CENTRAL COAST

CITY           SKY/WX    TMP DP  RH WIND       PRES   REMARKS
FRISCO         CLEAR     53  41  63 W14G23    30.11S
SWANQUARTER      N/A     48 N/A N/A SW8       30.06S

$$

NCZ095-097-098-100-101-210300-
SOUTHERN COAST

CITY           SKY/WX    TMP DP  RH WIND       PRES   REMARKS
BEAUFORT       CLEAR     56  43  61 W15       30.14R
CEDAR ISLAND     N/A     50 N/A N/A S6G12     30.15S
JACKSONVILLE   CLEAR     49  38  65 SW8       30.14R
PINEY ISLAND   CLEAR     50  40  68 SW9       30.13R
WILMINGTON     MOCLDY    51  41  68 SW8       30.16R


$$

NCZ011>013-027>030-043-044-078>080-089-090>093-098-210300-
COASTAL PLAIN

CITY           SKY/WX    TMP DP  RH WIND       PRES   REMARKS
AHOSKIE        CLEAR     41  29  63 CALM      30.08R
CLINTON        CLEAR     44  32  64 CALM      30.13R
ELIZABETHTOWN  CLEAR     49  33  56 SW3       30.14S
GOLDSBORO      CLEAR     40  33  74 CALM      30.10R
GREENVILLE     CLEAR     41  30  65 SW5       30.11S
HAVELOCK       CLEAR     47  37  68 SW6       30.15R
KENANSVILLE    CLEAR     42  32  68 CALM      30.13S
KINSTON        CLEAR     36  30  80 SW5       30.12R
NEW BERN       CLEAR     48  37  65 SW8       30.14R
RICHLANDS      CLEAR     41  34  75 S7        30.15R
ROCKY MOUNT    CLEAR     42  29  59 S5        30.09R
WASHINGTON     CLEAR     44  30  57 CALM      30.11R
WHITEVILLE     PTCLDY    48  36  61 SW3       30.16R

$$

AMZ130-135-150-152-154-156-158-170-250-252-270-ANZ085-086-088-633-658-670-210300-
MARINE OBSERVATIONS

STATION/POSITION TIME  TEMP    WIND        PRES    WAVE   SWELL
                       AIR SEA DIR/SP/G            HT/PER HT/PER
                 (UTC) (F)     (DEG/KT/KT) (MB)    (FT/S) (FT/S)
CHESAPEAKE LIGHT 0100   54     230/ 21/ 24 1016.9
64 E VA BEACH    0200   57 61  240/ 21/ 29 1017.0    5/ 5
DUCK             0200   49 55  210/ 10/ 13 1017.6
2 E DUCK         0200      57                N/A     2/ 3
10 NE DUCK       0200      58                N/A     3/ 4
OREGON INLET     0200   50 46  220/ 12/ 13 1018.9
13E OREGON INLT  0200      62                N/A     3/ 7
HATTERAS CG      0200   54 52  250/ 12/ 19 1020.0
DIAMOND BUOY     0200   61     250/ 21/ 29 1019.4    7/ 7   2/11
17 S OCRACOKE    NOT AVBL
CAPE LOOKOUT     0100   58     250/ 17/ 20 1020.0
BEAUFORT LAB     0200   57 54  250/  9/ 17 1019.4
30 SE NEW RIVER  0200   62 69  260/ 23/ 29 1020.1    6/ 6
5 SE WRIGHTSVLE  0100   56 60  240/ 14/ 17 1020.7
225 S CAPE HAT   0149   66 74  260/ 14/ 19 1023.2    4/ 6   2/ 8
41 SE CHARLESTON 0200   63 72  250/ 19/ 25 1022.7    4/ 5   2/ 8

$$


USA.gov is the U.S. government's official web portal to all federal, state and local government web resources and services.